Location: Bonny Doon Airfield
(37.0704°N, 122.1252°W)
Time: 01:18:01
(UTC-07:00)

BREEZE M DEB (TANK) - Visible Passes

Search period start: 28 July 2014 00:00
Search period end: 07 August 2014 00:00
Orbit: 344 x 13827 km, 49.6° (Epoch: 26 July)

Date Brightness Start Highest point End Pass type
(mag) Time Alt. Az. Time Alt. Az. Time Alt. Az.
28 Jul 8.2 19:16:56 10° WNW 19:33:37 69° SW 21:03:24 10° SSE visible
29 Jul 9.1 21:18:35 10° WNW 21:42:41 37° WSW 23:01:34 10° S visible
30 Jul 8.0 18:46:14 10° WNW 19:01:25 74° SW 20:27:34 10° SSE visible
30 Jul 9.7 23:44:00 10° WSW 23:50:33 10° WSW 23:58:07 10° WSW visible
31 Jul 9.0 20:47:14 10° WNW 21:09:53 41° SW 22:30:40 10° S visible
01 Aug 9.6 23:01:18 10° W 23:18:24 13° WSW 23:45:22 10° SW visible
02 Aug 8.9 20:15:59 10° WNW 20:37:05 44° SW 21:58:49 10° S visible
03 Aug 9.6 22:25:35 10° W 22:46:01 17° WSW 23:24:22 10° SW visible
04 Aug 8.8 19:44:49 10° WNW 20:04:18 48° SW 21:26:05 10° S visible
05 Aug 9.6 21:51:39 10° W 22:13:26 20° WSW 23:00:18 10° SSW visible
06 Aug 8.6 19:13:43 10° WNW 19:31:36 51° SW 20:52:32 10° S visible
